SL-16 DEB, 29094

Orbit data source: Space-Track

SL-16 DEB, 29094 is space debris in LEO originally from a launch on Fri, 25 Dec 1992 UTC launched from the Tyuratam Missile And Space Complex (TTMTR). Debris objects in space refer to the collection of defunct objects orbiting the Earth. Examples of debris include non-operational satellites, rocket bodies, and fragments generated from explosions, collisions, or faulty payload assembly.

Loading next visibility...
Identifier
29094, 1992-093JQ
Orbit
LEO
Country
Flag of CISCIS
Related business
Manufacturer
Unknown
Mission
Spacecraft
Bus & Motor
Unknown
Mass
Unknown
Launch date (UTC)
1992-12-25 (33 years ago)
Launch vehicle
Unknown
Launch site
Tyuratam Missile And Space Complex (TTMTR)
Object type
Payload
Rocket body
Debris
Shape & HBR
Unknown shape, 0.1 m
Radar Cross Section
Small (<0.1 m²)

Expand to show TLE details & history
Last TLE update: 3 weeks ago

TLE from 3 weeks ago
0 SL-16 DEB
1 29094U 92093JQ  26106.44749249  .00025637  00000-0  23466-2 0  9991
2 29094  71.2574 267.1154 0035320  59.1399 301.3234 14.94403598223063
Epoch: 2026-04-16T10:44Z
TLE epoch observation values (Epoch: 2026-04-16T10:44:23.351Z)
Latitude
0.00007°
Longitude
-98.57678°
Altitude
574.009 km
Speed
7.581 km/s
True Right ascension
17h 48m 27s
True Declination
0° 00' 00"
Sunlit
Object was in full shadow at epoch
Visualization orbit readout
Latitude
Unknown
Longitude
Unknown
Altitude
Unknown
Speed
Unknown
Apparent Right ascension
Unknown
Apparent Declination
Unknown
Sunlit
N/A
Visualization observer readout
Local Sidereal Time
16:20:27
Azimuth
Unknown
Elevation
Unknown
Doppler factor
Unknown
Orbital elements
Apogee altitude
606.629 km
Perigee altitude
557.463 km
Semi-major axis
6,960.183 km
Eccentricity
0.00353
Inclination
71.2574°
RAAN
267.1154°
Arg. of periapsis
59.1399°
True anomaly
300.97686°
Mean anomaly
301.3234°
Eccentric anomaly
301.15021°
Mean motion
3.73777 °/min
Orbital period
96.31 mins
BSTAR
0.0023466
Loading maneuver chart data...
Computing Atmospheric mass density...
Loading historical data...
Loading historical data...
Loading historical data...
Loading historical data...
Loading historical data...
Loading historical data...
Loading historical data...

Documentation

Showing up to 5 results
|